DW8305 Weather Reports


time (UTC)temp
C
wind
direction
speed
KPH
gust
KPH
rain 1hr
cm
rain 24hr
cm
rain mn
cm
humidity
%
barometer
mb
20260901161236 21 270 8.0 11.3 0.00 0.30 0.03 69 1019.2
20260901160216 21 270 9.7 19.3 0.00 0.30 0.03 68 1019.1
20260901155215 21 293 14.5 19.3 0.00 0.30 0.03 69 1019.1
20260901154215 21 225 8.0 12.9 0.00 0.30 0.03 69 1019.1
20260901153216 20 248 9.7 14.5 0.00 0.30 0.03 71 1019.1
20260901152216 20 293 8.0 11.3 0.00 0.30 0.03 70 1019.1
20260901151216 21 270 9.7 14.5 0.00 0.30 0.03 70 1019.1
20260901150215 21 270 6.4 11.3 0.00 0.30 0.03 72 1019.1
20260901145216 21 293 8.0 12.9 0.00 0.30 0.03 73 1019.1
20260901144216 20 248 4.8 11.3 0.00 0.30 0.03 74 1019.0
20260901143215 21 248 11.3 17.7 0.00 0.30 0.03 74 1019.0
20260901142216 20 248 8.0 12.9 0.00 0.30 0.03 75 1019.1
20260901141216 21 248 6.4 16.1 0.00 0.30 0.03 76 1019.2
20260901140216 20 225 8.0 12.9 0.00 0.30 0.03 75 1019.2
20260901135356 20 270 8.0 14.5 0.00 0.43 0.03 74 1019.1
20260901134215 20 225 6.4 14.5 0.00 0.43 0.03 74 1019.1
20260901133215 20 270 9.7 14.5 0.00 0.43 0.03 73 1019.2
20260901132216 20 203 12.9 19.3 0.00 0.43 0.03 74 1019.2
20260901131216 20 270 9.7 16.1 0.00 0.43 0.03 77 1019.3
20260901130216 20 225 9.7 14.5 0.00 0.43 0.03 80 1019.3
20260901125215 19 248 4.8 9.7 0.00 0.43 0.03 80 1019.3
20260901124216 19 225 9.7 12.9 0.00 0.43 0.03 81 1019.4
20260901123235 19 248 8.0 14.5 0.00 0.43 0.03 79 1019.4
20260901122215 19 248 4.8 8.0 0.00 0.43 0.03 79 1019.4
20260901121215 20 270 9.7 16.1 0.00 0.43 0.03 77 1019.4
20260901120216 20 248 14.5 24.1 0.00 0.43 0.03 75 1019.3
20260901115216 20 248 11.3 17.7 0.00 0.43 0.03 75 1019.2
20260901114216 20 270 11.3 16.1 0.00 0.43 0.03 76 1019.2
20260901113215 20 225 8.0 12.9 0.00 0.43 0.03 79 1019.2
20260901112216 19 270 8.0 11.3 0.00 0.43 0.03 81 1019.3
20260901111236 19 270 8.0 12.9 0.00 0.43 0.03 80 1019.3
20260901110216 19 248 9.7 17.7 0.00 0.43 0.03 78 1019.2
20260901105216 20 225 9.7 14.5 0.00 0.43 0.03 79 1019.1
20260901104215 20 270 4.8 9.7 0.00 0.43 0.03 78 1019.2
20260901103236 20 270 4.8 9.7 0.00 0.43 0.03 77 1019.1
20260901102235 20 270 8.0 14.5 0.00 0.43 0.03 76 1019.2
20260901101215 20 270 11.3 17.7 0.00 0.43 0.03 76 1019.1
20260901100216 20 270 8.0 12.9 0.00 0.43 0.03 79 1019.1
20260901095215 20 293 12.9 20.9 0.00 0.43 0.03 80 1019.0
20260901094216 20 270 8.0 17.7 0.00 0.43 0.03 81 1018.9
20260901093216 19 270 16.1 29.0 0.00 0.43 0.03 82 1019.0
20260901092215 19 270 16.1 24.1 0.00 0.43 0.03 82 1019.0
20260901091216 19 270 6.4 9.7 0.00 0.43 0.03 84 1018.9
20260901090215 18 270 11.3 16.1 0.00 0.43 0.03 85 1018.8
20260901085216 19 270 11.3 14.5 0.00 0.43 0.03 84 1018.9
20260901084215 18 270 12.9 16.1 0.00 0.43 0.03 86 1018.8
20260901083216 18 248 8.0 17.7 0.00 0.43 0.03 86 1018.7
20260901082216 18 270 6.4 11.3 0.00 0.43 0.03 88 1018.7
20260901081215 18 225 12.9 19.3 0.00 0.43 0.03 88 1018.6
20260901080215 17 270 6.4 11.3 0.00 0.43 0.03 90 1018.6
20260901075216 17 225 8.0 12.9 0.00 0.43 0.03 90 1018.6
20260901074235 17 270 8.0 11.3 0.00 0.43 0.03 90 1018.5
20260901073215 17 270 8.0 11.3 0.00 0.43 0.03 90 1018.5
20260901072215 17 248 3.2 6.4 0.00 0.43 0.03 91 1018.4
20260901071216 17 270 6.4 9.7 0.00 0.43 0.03 90 1018.2
20260901070216 17 270 9.7 19.3 0.00 0.43 0.03 90 1018.1
20260901065215 17 270 8.0 12.9 0.00 0.43 0.03 91 1018.1
20260901064216 16 225 6.4 9.7 0.00 0.43 0.03 92 1018.0
20260901063215 16 270 8.0 12.9 0.00 0.43 0.03 92 1018.0
20260901062216 16 293 6.4 9.7 0.00 0.43 0.03 93 1017.9
20260901061236 16 270 8.0 11.3 0.00 0.43 0.03 93 1017.8
20260901060216 16 270 6.4 14.5 0.00 0.43 0.03 94 1017.7
20260901055215 15 270 4.8 11.3 0.00 0.43 0.03 94 1017.6
20260901054215 15 270 4.8 8.0 0.00 0.43 0.03 94 1017.6
20260901053215 15 225 3.2 4.8 0.00 0.43 0.03 95 1017.5
20260901052215 15 225 4.8 8.0 0.00 0.43 0.03 95 1017.3
20260901051215 15 270 1.6 3.2 0.00 0.43 0.03 95 1017.2
20260901050215 15 225 3.2 6.4 0.00 0.43 0.03 95 1017.2
20260901045215 15 293 3.2 4.8 0.00 0.43 0.03 95 1017.1
20260901044235 15 248 6.4 9.7 0.00 0.43 0.03 95 1016.9
20260901043216 15 270 3.2 4.8 0.00 0.43 0.03 95 1016.8
20260901042215 15 293 3.2 4.8 0.00 0.43 0.03 95 1016.7
20260901041215 15 248 3.2 6.4 0.00 0.43 0.03 94 1016.7
20260901040216 15 270 3.2 6.4 0.00 0.43 0.03 94 1016.7
20260901035216 15 225 4.8 8.0 0.00 0.43 0.03 94 1016.7
20260901034215 15 293 6.4 11.3 0.00 0.43 0.03 94 1016.7
20260901033215 16 225 3.2 3.2 0.00 0.43 0.03 93 1016.7
20260901032215 16 270 4.8 8.0 0.00 0.43 0.03 93 1016.6
20260901031216 16 270 8.0 16.1 0.00 0.43 0.03 93 1016.5
20260901030216 16 270 4.8 8.0 0.00 0.43 0.03 93 1016.5
20260901025216 16 225 4.8 8.0 0.00 0.43 0.03 94 1016.4
20260901024216 16 270 8.0 11.3 0.00 0.43 0.03 94 1016.4
20260901023216 16 293 9.7 12.9 0.00 0.43 0.03 94 1016.4
20260901022235 16 293 6.4 14.5 0.00 0.43 0.03 94 1016.3
20260901021216 16 270 11.3 19.3 0.00 0.43 0.03 94 1016.2
20260901020215 16 248 4.8 9.7 0.00 0.43 0.03 94 1016.2
20260901015255 16 248 4.8 9.7 0.00 0.43 0.03 94 1016.1
20260901014216 16 248 4.8 6.4 0.00 0.43 0.03 94 1016.0
20260901013215 16 270 9.7 16.1 0.00 0.43 0.03 94 1015.9
20260901012215 16 203 3.2 6.4 0.00 0.43 0.03 94 1015.9
20260901011216 16 248 8.0 12.9 0.00 0.43 0.03 94 1015.8
20260901010215 16 270 11.3 19.3 0.00 0.43 0.03 95 1015.8
20260901005216 15 270 9.7 12.9 0.00 0.43 0.03 95 1015.8
20260901004215 15 270 6.4 11.3 0.00 0.43 0.03 95 1015.7
20260901003216 15 270 6.4 12.9 0.00 0.43 0.03 95 1015.6
20260901002216 15 270 6.4 11.3 0.00 0.43 0.03 95 1015.5
20260901001215 16 270 8.0 11.3 0.00 0.43 0.03 94 1015.4
20260901000218 16 270 9.7 16.1 0.00 0.43 0.03 95 1015.4
20260831235215 15 248 6.4 12.9 0.00 0.43 0.03 95 1015.4
20260831234215 15 270 6.4 9.7 0.00 0.43 0.03 95 1015.3
20260831233215 15 270 6.4 14.5 0.00 0.43 0.03 95 1015.2
20260831232215 15 270 9.7 14.5 0.00 0.43 0.03 95 1015.1
20260831231235 15 248 6.4 12.9 0.00 0.43 0.03 95 1015.1
20260831230216 15 270 9.7 14.5 0.00 0.43 0.03 95 1015.0
20260831225215 15 248 8.0 14.5 0.03 0.43 0.03 95 1014.9
20260831224215 15 270 12.9 22.5 0.03 0.43 0.03 95 1014.6
20260831223215 15 270 8.0 12.9 0.03 0.43 0.03 95 1014.6
20260831222215 15 270 11.3 19.3 0.03 0.43 0.03 95 1014.6
20260831221215 15 270 9.7 14.5 0.03 0.43 0.03 95 1014.5
20260831220215 15 270 12.9 20.9 0.00 0.43 0.00 95 1014.4
20260831215216 15 270 6.4 11.3 0.00 0.43 0.43 95 1014.3
20260831214216 15 248 6.4 11.3 0.10 0.43 0.43 95 1014.3
20260831213216 15 270 12.9 20.9 0.15 0.43 0.43 96 1014.3
20260831212216 15 270 6.4 11.3 0.15 0.43 0.43 96 1014.2
20260831211216 15 270 6.4 11.3 0.15 0.43 0.43 96 1014.1
20260831210216 15 248 6.4 14.5 0.15 0.43 0.43 97 1014.1
20260831205216 15 225 4.8 11.3 0.15 0.43 0.43 97 1014.0
20260831204236 15 248 9.7 12.9 0.05 0.30 0.30 98 1014.0
20260831203216 15 248 6.4 14.5 0.00 0.25 0.25 98 1013.6
20260831202216 15 225 6.4 14.5 0.00 0.25 0.25 98 1013.6
20260831201216 15 225 4.8 8.0 0.00 0.25 0.25 98 1013.5
20260831200216 15 225 6.4 11.3 0.00 0.25 0.25 98 1013.5
20260831195216 15 248 6.4 11.3 0.00 0.25 0.25 98 1013.3
20260831194216 15 225 8.0 11.3 0.00 0.25 0.25 98 1013.2
20260831193216 15 225 6.4 9.7 0.00 0.25 0.25 98 1013.2
20260831192216 15 225 4.8 6.4 0.00 0.25 0.25 98 1013.2
20260831191216 15 225 3.2 8.0 0.00 0.25 0.25 98 1013.2
20260831190216 15 248 8.0 14.5 0.00 0.25 0.25 98 1013.1
20260831185216 15 225 6.4 8.0 0.00 0.25 0.25 98 1012.9
20260831184216 15 248 3.2 4.8 0.00 0.25 0.25 97 1012.7
20260831183236 15 225 1.6 3.2 0.00 0.25 0.25 97 1012.6
20260831182216 15 270 1.6 1.6 0.10 0.25 0.25 97 1012.5
20260831181236 15 248 3.2 4.8 0.13 0.25 0.25 97 1012.4
20260831180216 15 270 3.2 3.2 0.13 0.25 0.25 96 1012.3
20260831175216 15 0.0 3.2 0.13 0.25 0.25 96 1012.1
20260831174236 15 270 4.8 6.4 0.13 0.25 0.25 95 1012.0
20260831173216 16 270 3.2 4.8 0.13 0.25 0.25 92 1011.8
20260831172216 17 270 8.0 11.3 0.00 0.15 0.15 79 1012.0
20260831171216 17 293 9.7 16.1 0.00 0.15 0.15 74 1011.9
20260831170236 18 315 6.4 8.0 0.00 0.15 0.15 72 1011.8
20260831165216 18 293 11.3 17.7 0.00 0.15 0.15 76 1011.6
20260831164236 19 270 9.7 17.7 0.00 0.15 0.15 76 1011.6
20260831163216 19 270 9.7 14.5 0.00 0.15 0.15 75 1011.5
20260831162216 19 248 9.7 19.3 0.00 0.15 0.15 74 1011.4